EW8621 Weather Reports


Display with metric or nautical units.
time (UTC)temp
F
wind
direction
speed
MPH
gust
MPH
rain 1hr
in
rain 24hr
in
rain mn
in
humidity
%
barometer
mb
20260502181241 75 178 0.0 1.0 0.00 0.00 0.00 49 1012.0
20260502180740 75 178 0.0 1.0 0.00 0.00 0.00 49 1011.7
20260502180240 75 146 0.0 1.0 0.00 0.00 0.00 48 1011.9
20260502170232 80 165 0.0 3.0 0.00 0.00 0.00 42 1012.0
20260502163728 81 258 2.0 6.0 0.00 0.00 0.00 40 1012.4
20260502163227 81 277 0.0 3.0 0.00 0.00 0.00 40 1012.4
20260502162726 82 294 2.0 4.0 0.00 0.00 0.00 40 1012.3
20260502162448 82 275 2.0 6.0 0.00 0.00 0.00 39 1012.4
20260502161726 82 251 2.0 6.0 0.00 0.00 0.00 39 1012.4
20260502160725 82 269 1.0 4.0 0.00 0.00 0.00 41 1012.6
20260502160223 82 274 2.0 4.0 0.00 0.00 0.00 39 1012.8
20260502152220 80 265 2.0 7.0 0.00 0.00 0.00 41 1013.1
20260502151718 79 241 1.0 7.0 0.00 0.00 0.00 41 1013.3
20260502151444 80 258 1.0 8.0 0.00 0.00 0.00 41 1013.4
20260502150718 80 259 2.0 8.0 0.00 0.00 0.00 43 1013.3
20260502150216 81 257 4.0 6.0 0.00 0.00 0.00 42 1013.5
20260502130704 79 245 3.0 6.0 0.00 0.00 0.00 44 1014.6
20260502130202 80 270 2.0 4.0 0.00 0.00 0.00 44 1014.6
20260502123658 80 273 1.0 7.0 0.00 0.00 0.00 45 1015.0
20260502123425 78 230 0.0 7.0 0.00 0.00 0.00 46 1015.1
20260502122657 77 252 1.0 7.0 0.00 0.00 0.00 47 1015.0
20260502122210 77 261 0.0 4.0 0.00 0.00 0.00 47 1015.1
20260502121658 77 271 1.0 8.0 0.00 0.00 0.00 46 1015.4
20260502121156 78 212 1.0 8.0 0.00 0.00 0.00 46 1015.1
20260502120655 79 234 2.0 8.0 0.00 0.00 0.00 45 1015.2
20260502120416 79 283 2.0 8.0 0.00 0.00 0.00 45 1015.3
20260502115920 80 243 4.0 6.0 0.00 0.00 0.00 44 1015.2
20260502115153 80 103 1.0 3.0 0.00 0.00 0.00 45 1015.4
20260502114653 80 269 1.0 6.0 0.00 0.00 0.00 45 1015.2
20260502114154 80 188 1.0 7.0 0.00 0.00 0.00 44 1015.5
20260502113651 80 238 2.0 7.0 0.00 0.00 0.00 44 1015.7
20260502113409 80 159 3.0 6.0 0.00 0.00 0.00 44 1015.7
20260502112652 80 226 4.0 6.0 0.00 0.00 0.00 43 1015.5
20260502112149 80 186 2.0 10.0 0.00 0.00 0.00 44 1015.6
20260502111649 79 157 7.0 10.0 0.00 0.00 0.00 45 1015.9
20260502111148 78 238 2.0 7.0 0.00 0.00 0.00 45 1015.8
20260502110649 78 217 3.0 7.0 0.00 0.00 0.00 45 1015.8
20260502105646 77 206 3.0 9.0 0.00 0.00 0.00 45 1015.9
20260502105146 77 280 3.0 8.0 0.00 0.00 0.00 46 1016.0
20260502104648 76 157 3.0 6.0 0.00 0.00 0.00 47 1015.9
20260502104145 76 249 2.0 8.0 0.00 0.00 0.00 47 1016.1
20260502103644 75 102 3.0 8.0 0.00 0.00 0.00 47 1016.0
20260502103144 75 164 4.0 9.0 0.00 0.00 0.00 47 1016.3
20260502102909 74 161 3.0 9.0 0.00 0.00 0.00 48 1016.3
20260502102142 74 262 2.0 6.0 0.00 0.00 0.00 48 1016.2
20260502101643 73 222 1.0 6.0 0.00 0.00 0.00 49 1016.1
20260502101140 73 264 1.0 4.0 0.00 0.00 0.00 48 1016.3
20260502100640 73 146 2.0 6.0 0.00 0.00 0.00 48 1016.3
20260502100357 73 171 3.0 6.0 0.00 0.00 0.00 49 1016.3
20260502091133 69 226 0.0 4.0 0.00 0.00 0.00 48 1016.8
20260502090132 69 231 0.0 4.0 0.00 0.00 0.00 47 1016.8
20260502071128 60 245 0.0 4.0 0.00 0.00 0.00 55 1016.9
20260502070618 60 219 0.0 4.0 0.00 0.00 0.00 56 1016.9
20260502070117 60 183 1.0 3.0 0.00 0.00 0.00 56 1016.8
20260502065618 60 181 2.0 3.0 0.00 0.00 0.00 56 1017.1
20260502065115 60 235 1.0 3.0 0.00 0.00 0.00 56 1017.1
20260502064615 60 147 0.0 4.0 0.00 0.00 0.00 57 1017.0
20260502064114 60 169 2.0 4.0 0.00 0.00 0.00 57 1017.0
20260502063615 60 172 2.0 3.0 0.00 0.00 0.00 56 1017.3
20260502063333 61 133 1.0 4.0 0.00 0.00 0.00 55 1016.9
20260502062612 62 261 4.0 4.0 0.00 0.00 0.00 55 1017.1
20260502062332 63 179 1.0 3.0 0.00 0.00 0.00 55 1016.9
20260502061612 62 270 1.0 3.0 0.00 0.00 0.00 57 1016.9
20260502061111 61 188 2.0 3.0 0.00 0.00 0.00 58 1016.9
20260502060611 60 213 0.0 3.0 0.00 0.00 0.00 61 1016.8
20260502060112 58 214 0.0 3.0 0.00 0.00 0.00 63 1016.9
20260502055109 54 180 2.0 3.0 0.00 0.00 0.00 66 1016.9
20260502054828 53 267 2.0 3.0 0.00 0.00 0.00 67 1017.0
20260502054107 53 162 0.0 3.0 0.00 0.00 0.00 67 1017.0
20260502053620 52 159 0.0 3.0 0.00 0.00 0.00 67 1016.8
20260502053106 51 222 0.0 4.0 0.00 0.00 0.00 68 1017.1
20260502052606 51 249 1.0 4.0 0.00 0.00 0.00 69 1016.7
20260502052108 50 186 0.0 2.0 0.00 0.00 0.00 69 1016.9
20260502051604 49 162 1.0 3.0 0.00 0.00 0.00 70 1016.9
20260502051104 49 201 0.0 3.0 0.00 0.00 0.00 70 1016.8
20260502050603 48 171 1.0 2.0 0.00 0.00 0.00 71 1016.7
20260502045603 48 142 0.0 1.0 0.00 0.00 0.00 72 1016.7
20260502045101 48 123 0.0 0.0 0.00 0.00 0.00 72 1016.8
20260502044602 48 118 0.0 0.0 0.00 0.00 0.00 72 1016.7
20260502044100 48 116 0.0 0.0 0.00 0.00 0.00 71 1016.8
20260502043559 48 115 0.0 0.0 0.00 0.00 0.00 71 1016.7
20260502043059 48 115 0.0 0.0 0.00 0.00 0.00 71 1016.8
20260502042559 48 115 0.0 0.0 0.00 0.00 0.00 71 1017.0
20260502042057 48 115 0.0 0.0 0.00 0.00 0.00 70 1016.8
20260502041557 48 115 0.0 0.0 0.00 0.00 0.00 70 1016.6
20260502041056 48 115 0.0 0.0 0.00 0.00 0.00 70 1016.8
20260502040835 48 115 0.0 0.0 0.00 0.00 0.00 70 1017.0
20260502040109 48 115 0.0 0.0 0.00 0.00 0.00 70 1017.0
20260502035554 48 115 0.0 0.0 0.00 0.00 0.00 70 1017.0
20260502035053 48 115 0.0 0.0 0.00 0.00 0.00 69 1017.2
20260502034554 48 116 0.0 0.0 0.00 0.00 0.00 70 1017.3
20260502034053 48 116 0.0 0.0 0.00 0.00 0.00 69 1017.2
20260502033552 48 116 0.0 0.0 0.00 0.00 0.00 69 1017.1
20260502033053 48 115 0.0 0.0 0.00 0.00 0.00 68 1017.0
20260502032550 48 116 0.0 0.0 0.00 0.00 0.00 68 1017.1
20260502032314 49 116 0.0 0.0 0.00 0.00 0.00 68 1017.2
20260502031549 49 116 0.0 0.0 0.00 0.00 0.00 68 1017.1
20260502031317 49 116 0.0 0.0 0.00 0.00 0.00 68 1017.0
20260502030548 49 124 0.0 0.0 0.00 0.00 0.00 67 1017.3
20260502025547 49 124 0.0 0.0 0.00 0.00 0.00 67 1017.5
20260502025046 49 124 0.0 0.0 0.00 0.00 0.00 67 1017.5
20260502024545 49 124 0.0 0.0 0.00 0.00 0.00 67 1017.6
20260502023544 50 124 0.0 0.0 0.00 0.00 0.00 66 1017.7
20260502023044 50 124 0.0 0.0 0.00 0.00 0.00 66 1017.6
20260502022543 50 124 0.0 0.0 0.00 0.00 0.00 65 1017.6
20260502022043 50 171 0.0 0.0 0.00 0.00 0.00 66 1017.7
20260502021542 50 171 0.0 0.0 0.00 0.00 0.00 65 1017.6
20260502021041 50 171 0.0 0.0 0.00 0.00 0.00 65 1017.5
20260502020553 50 171 0.0 0.0 0.00 0.00 0.00 64 1017.4
20260502020041 51 171 0.0 0.0 0.00 0.00 0.00 65 1017.7
20260502015539 51 171 0.0 0.0 0.00 0.00 0.00 64 1017.7
20260502015300 51 171 0.0 0.0 0.00 0.00 0.00 64 1017.7
20260502014539 51 171 0.0 0.0 0.00 0.00 0.00 63 1017.9
20260502014040 51 171 0.0 0.0 0.00 0.00 0.00 63 1017.9
20260502013537 51 171 0.0 0.0 0.00 0.00 0.00 62 1017.6
20260502013302 51 171 0.0 0.0 0.00 0.00 0.00 62 1018.0
20260502012751 52 171 0.0 0.0 0.00 0.00 0.00 61 1017.8
20260502012259 52 171 0.0 0.0 0.00 0.00 0.00 61 1017.8
20260502011534 52 171 0.0 0.0 0.00 0.00 0.00 61 1017.9
20260502011035 52 171 0.0 0.0 0.00 0.00 0.00 60 1017.9
20260502010533 53 171 0.0 0.0 0.00 0.00 0.00 59 1018.1
20260502010032 53 171 0.0 0.0 0.00 0.00 0.00 59 1018.3
20260502005532 53 171 0.0 0.0 0.00 0.00 0.00 58 1018.3
20260502005255 53 171 0.0 0.0 0.00 0.00 0.00 58 1018.3
20260502004531 54 171 0.0 0.0 0.00 0.00 0.00 57 1018.3
20260502004030 54 172 0.0 0.0 0.00 0.00 0.00 56 1018.3
20260502003529 54 172 0.0 0.0 0.00 0.00 0.00 55 1018.5
20260502003031 54 172 0.0 0.0 0.00 0.00 0.00 56 1018.4
20260502002528 54 172 0.0 0.0 0.00 0.00 0.00 54 1018.5
20260502002027 55 172 0.0 0.0 0.00 0.00 0.00 54 1018.6
20260502001526 55 172 0.0 0.0 0.00 0.00 0.00 55 1018.5
20260502001026 55 173 0.0 1.0 0.00 0.00 0.00 54 1018.6
20260502000749 55 174 0.0 1.0 0.00 0.00 0.00 54 1018.6
20260502000025 55 177 0.0 2.0 0.00 0.00 0.00 54 1018.6
20260501235526 55 184 0.0 2.0 0.00 0.00 0.00 53 1018.6
20260501235024 56 168 0.0 1.0 0.00 0.00 0.00 53 1018.8
20260501234525 56 156 0.0 1.0 0.00 0.00 0.00 53 1018.8
20260501234024 56 161 0.0 2.0 0.00 0.00 0.00 53 1018.7
20260501233523 56 207 1.0 2.0 0.00 0.00 0.00 53 1018.9
20260501233022 56 167 0.0 0.0 0.00 0.00 0.00 53 1018.8
20260501232534 56 168 0.0 1.0 0.00 0.00 0.00 52 1019.0
20260501232020 56 170 0.0 1.0 0.00 0.00 0.00 52 1018.9
20260501231520 57 177 0.0 1.0 0.00 0.00 0.00 51 1018.9
20260501231021 57 176 0.0 0.0 0.00 0.00 0.00 51 1019.0
20260501230519 57 176 0.0 0.0 0.00 0.00 0.00 50 1019.0
20260501230018 58 176 0.0 0.0 0.00 0.00 0.00 49 1019.2
20260501225518 58 176 0.0 0.0 0.00 0.00 0.00 48 1019.0
20260501225018 58 178 0.0 1.0 0.00 0.00 0.00 48 1019.0
20260501224517 59 177 0.0 1.0 0.00 0.00 0.00 48 1019.1
20260501224240 59 180 0.0 1.0 0.00 0.00 0.00 48 1019.1
20260501223517 60 181 0.0 1.0 0.00 0.00 0.00 47 1018.9
20260501223014 60 158 0.0 1.0 0.00 0.00 0.00 47 1018.9
20260501222734 60 226 0.0 1.0 0.00 0.00 0.00 47 1019.1
20260501222015 60 225 0.0 1.0 0.00 0.00 0.00 46 1019.1
20260501221730 60 199 0.0 1.0 0.00 0.00 0.00 46 1018.8
20260501221012 61 209 0.0 2.0 0.00 0.00 0.00 46 1019.2
20260501220513 61 199 0.0 2.0 0.00 0.00 0.00 45 1019.1
20260501220012 61 181 0.0 3.0 0.00 0.00 0.00 44 1019.3
20260501215510 61 179 2.0 4.0 0.00 0.00 0.00 44 1019.1
20260501215230 61 206 1.0 4.0 0.00 0.00 0.00 44 1019.1
20260501214511 61 183 0.0 4.0 0.00 0.00 0.00 44 1019.2
20260501214227 61 149 0.0 1.0 0.00 0.00 0.00 44 1019.2
20260501213508 61 146 0.0 2.0 0.00 0.00 0.00 44 1019.2
20260501213009 61 155 1.0 2.0 0.00 0.00 0.00 44 1019.1
20260501212507 61 149 1.0 1.0 0.00 0.00 0.00 44 1019.1
20260501212006 62 146 0.0 1.0 0.00 0.00 0.00 45 1019.1
20260501211730 62 130 0.0 1.0 0.00 0.00 0.00 44 1019.1
20260501211006 62 110 0.0 0.0 0.00 0.00 0.00 44 1019.1
20260501210504 62 106 0.0 1.0 0.00 0.00 0.00 43 1019.3
20260501210004 62 170 0.0 1.0 0.00 0.00 0.00 44 1019.1
20260501205502 62 140 0.0 2.0 0.00 0.00 0.00 44 1019.2
20260501205002 62 130 0.0 2.0 0.00 0.00 0.00 43 1019.2
20260501204503 63 140 0.0 1.0 0.00 0.00 0.00 43 1019.1
20260501204001 63 149 0.0 1.0 0.00 0.00 0.00 42 1019.2
20260501203501 63 132 0.0 0.0 0.00 0.00 0.00 42 1019.1
20260501203000 64 132 0.0 1.0 0.00 0.00 0.00 43 1019.1
20260501202501 64 132 0.0 1.0 0.00 0.00 0.00 42 1019.2
20260501201959 64 136 0.0 1.0 0.00 0.00 0.00 42 1019.3
20260501200959 65 136 0.0 1.0 0.00 0.00 0.00 40 1019.2
20260501200457 65 191 0.0 1.0 0.00 0.00 0.00 40 1019.3
20260501195956 65 184 0.0 1.0 0.00 0.00 0.00 40 1019.2
20260501195455 65 215 0.0 1.0 0.00 0.00 0.00 40 1019.2
20260501194212 66 131 0.0 0.0 0.00 0.00 0.00 38 1019.1
20260501193715 66 131 0.0 0.0 0.00 0.00 0.00 37 1019.3
20260501193212 67 131 0.0 0.0 0.00 0.00 0.00 36 1019.2
20260501192452 67 131 0.0 0.0 0.00 0.00 0.00 35 1019.2
20260501192210 68 131 0.0 0.0 0.00 0.00 0.00 35 1019.5
20260501191450 69 131 0.0 0.0 0.00 0.00 0.00 35 1019.3
20260501190950 69 131 0.0 0.0 0.00 0.00 0.00 36 1019.1
20260501190451 70 131 0.0 0.0 0.00 0.00 0.00 34 1019.0
20260501185949 70 131 0.0 3.0 0.00 0.00 0.00 34 1019.2
20260501185448 71 118 1.0 3.0 0.00 0.00 0.00 34 1019.1
20260501184948 71 150 0.0 1.0 0.00 0.00 0.00 33 1019.1
20260501184449 71 176 0.0 1.0 0.00 0.00 0.00 33 1019.4
20260501183946 72 123 0.0 1.0 0.00 0.00 0.00 33 1019.2
20260501183706 72 144 0.0 1.0 0.00 0.00 0.00 33 1019.2
20260501182947 73 129 0.0 1.0 0.00 0.00 0.00 32 1019.3
20260501182444 73 172 0.0 1.0 0.00 0.00 0.00 31 1019.2